TimeEDT,TemperatureF,Dew PointF,Humidity,Sea Level PressureIn,VisibilityMPH,Wind Direction,Wind SpeedMPH,Gust SpeedMPH,PrecipitationIn,Events,Conditions,WindDirDegrees,DateUTC
12:54 AM,51.1,32.0,48,29.93,10.0,SSE,10.4,-,N/A,,Mostly Cloudy,150,2013-03-10 05:54:00
1:54 AM,50.0,33.1,52,29.92,10.0,SSE,10.4,-,N/A,,Mostly Cloudy,150,2013-03-10 06:54:00
3:54 AM,51.1,33.1,50,29.91,10.0,South,10.4,-,N/A,,Mostly Cloudy,170,2013-03-10 07:54:00
4:54 AM,52.0,33.1,49,29.89,10.0,South,13.8,-,N/A,,Mostly Cloudy,180,2013-03-10 08:54:00
5:54 AM,53.1,34.0,48,29.90,10.0,South,17.3,-,N/A,,Mostly Cloudy,180,2013-03-10 09:54:00
6:54 AM,52.0,34.0,50,29.91,10.0,South,15.0,-,N/A,,Mostly Cloudy,180,2013-03-10 10:54:00
7:54 AM,53.6,33.8,47,29.94,10.0,South,13.8,-,N/A,,Overcast,170,2013-03-10 11:54:00
8:54 AM,52.0,35.1,53,29.92,10.0,SSE,12.7,-,0.00,,Overcast,160,2013-03-10 12:54:00
9:54 AM,54.0,36.0,51,29.92,10.0,SSE,12.7,-,N/A,,Overcast,160,2013-03-10 13:54:00
10:54 AM,55.9,36.0,47,29.92,10.0,South,17.3,-,N/A,,Overcast,170,2013-03-10 14:54:00
11:54 AM,57.9,37.9,47,29.90,10.0,South,16.1,23.0,N/A,,Overcast,180,2013-03-10 15:54:00
12:54 PM,62.1,37.9,41,29.87,10.0,South,17.3,-,N/A,,Overcast,170,2013-03-10 16:54:00
1:54 PM,64.0,35.1,34,29.88,10.0,South,21.9,27.6,N/A,,Overcast,170,2013-03-10 17:54:00
2:54 PM,64.9,33.1,31,29.80,10.0,SSE,19.6,25.3,N/A,,Overcast,160,2013-03-10 18:54:00
3:54 PM,64.9,37.0,36,29.81,10.0,South,19.6,25.3,N/A,,Overcast,170,2013-03-10 19:54:00
4:54 PM,66.0,34.0,30,29.78,10.0,South,19.6,28.8,N/A,,Overcast,170,2013-03-10 20:54:00
5:54 PM,64.0,33.1,31,29.74,10.0,SSE,16.1,21.9,N/A,,Overcast,160,2013-03-10 21:54:00
6:54 PM,62.1,37.0,39,29.73,10.0,ESE,12.7,-,0.00,Rain,Light Rain,120,2013-03-10 22:54:00
7:54 PM,61.0,36.0,39,29.74,10.0,SSE,15.0,-,0.00,,Overcast,150,2013-03-10 23:54:00
8:54 PM,60.1,37.9,44,29.75,10.0,SSE,11.5,-,0.00,Rain,Light Rain,160,2013-03-11 00:54:00
9:54 PM,57.9,39.0,49,29.76,10.0,South,18.4,25.3,0.00,Rain,Light Rain,170,2013-03-11 01:54:00
10:54 PM,55.9,41.0,57,29.75,10.0,South,13.8,-,0.00,,Mostly Cloudy,170,2013-03-11 02:54:00
11:54 PM,57.9,39.9,51,29.73,10.0,South,16.1,-,N/A,,Overcast,170,2013-03-11 03:54:00
12:54 AM,59.0,41.0,51,29.70,10.0,South,19.6,34.5,N/A,,Overcast,180,2013-03-11 04:54:00